Tracking 28126 objects as of 2-Oct-2023
HD Live streaming from Space Station
objects crossing your sky now

SJ-23

Track SJ-23 now!


NORAD ID: 55131
Int'l Code: 2023-002A
Perigee: 35,718.8 km
Apogee: 35,767.5 km
Inclination: 1.2 °
Period: 1,433.5 minutes
Semi major axis: 42114 km
RCS: Unknown
Launch date: January 8, 2023
Source: People's Republic of China (PRC)
Launch site: Wenchang Satellite Launch Center (WSC)
Your satellite tracking list
Your tracking list is empty




NASA's NSSDC Master Catalog

Two Line Element Set (TLE):
1 55131U 23002A   23275.16935169 -.00000026  00000-0  00000+0 0  9999
2 55131   1.1581  91.1339 0005776 149.6603 357.1896  1.00452529  2776
Source of the keplerian elements: AFSPC